This is the latest recevied weather packets stored in our database for station/object OH6HPS. If no packets are shown the sender has not sent any weather packets the latest 10 day(s).
| Time | Temp. | Humidity | Pressure | Rain* | Wind** | Luminosity | Snow |
|---|---|---|---|---|---|---|---|
| 1777861596 | 5° C | 71% | 1006.1 hPa | 0 mm | - | 5 W/m² | - |
| 1777860997 | 5° C | 71% | 1006 hPa | 0 mm | - | 0 W/m² | - |
| 1777860396 | 5° C | 70% | 1006.1 hPa | 0 mm | - | 0 W/m² | - |
| 1777859795 | 5° C | 70% | 1006.3 hPa | 0 mm | - | 0 W/m² | - |
| 1777859196 | 5.56° C | 70% | 1006.3 hPa | 0 mm | - | 0 W/m² | - |
| 1777858596 | 5.56° C | 69% | 1006.5 hPa | 0 mm | - | 0 W/m² | - |
| 1777857995 | 5.56° C | 70% | 1006.4 hPa | 0 mm | - | 0 W/m² | - |
| 1777857395 | 6.11° C | 69% | 1006.5 hPa | 0 mm | - | 0 W/m² | - |
| 1777856795 | 6.11° C | 67% | 1006.6 hPa | 0 mm | - | 0 W/m² | - |
| 1777856196 | 6.11° C | 68% | 1006.7 hPa | 0 mm | - | 0 W/m² | - |
| 1777855596 | 6.11° C | 65% | 1006.7 hPa | 0 mm | - | 0 W/m² | - |
| 1777854994 | 6.67° C | 64% | 1006.8 hPa | 0 mm | - | 0 W/m² | - |
| 1777854394 | 6.67° C | 65% | 1006.8 hPa | 0 mm | - | 0 W/m² | - |
| 1777853794 | 6.67° C | 66% | 1007 hPa | 0 mm | - | 0 W/m² | - |
| 1777853194 | 6.67° C | 65% | 1007 hPa | 0 mm | - | 0 W/m² | - |
| 1777852593 | 6.67° C | 65% | 1007 hPa | 0 mm | - | 0 W/m² | - |
| 1777851992 | 6.67° C | 64% | 1007.1 hPa | 0 mm | - | 0 W/m² | - |
| 1777851392 | 6.67° C | 66% | 1007.1 hPa | 0 mm | - | 0 W/m² | - |
| 1777850792 | 6.67° C | 64% | 1007.1 hPa | 0 mm | - | 0 W/m² | - |
| 1777850192 | 6.67° C | 65% | 1007.3 hPa | 0 mm | - | 0 W/m² | - |
| 1777849592 | 6.67° C | 64% | 1007.4 hPa | 0 mm | - | 0 W/m² | - |
| 1777848992 | 6.67° C | 64% | 1007.3 hPa | 0 mm | - | 0 W/m² | - |
| 1777848392 | 6.67° C | 63% | 1007.3 hPa | 0 mm | - | 0 W/m² | - |
| 1777847791 | 7.22° C | 62% | 1007.3 hPa | 0 mm | - | 0 W/m² | - |
| 1777847191 | 7.78° C | 60% | 1007.3 hPa | 0 mm | - | 0 W/m² | - |
* Rain latest hour (hover to see other rain measurements)
** Current wind speed in m/s (hover to see current wind gust speed)